Weather reports worldwide

Advertisment
Andrewsfield, United Kingdom (3684): temperature & dewpoint: 12.10.2017 06:00:00 - 18.10.2017 06:00:00 (BST)Andrewsfield, United Kingdom (3684): temperature -20cm & temperature -100cm: 12.10.2017 06:00:00 - 18.10.2017 06:00:00 (BST)Andrewsfield, United Kingdom (3684): wind speed & gusts: 12.10.2017 06:00:00 - 18.10.2017 06:00:00 (BST)Andrewsfield, United Kingdom (3684): wind direction: 12.10.2017 06:00:00 - 18.10.2017 06:00:00 (BST)Andrewsfield, United Kingdom (3684): reduced air pressure: 12.10.2017 06:00:00 - 18.10.2017 06:00:00 (BST)Andrewsfield, United Kingdom (3684): visibility: 12.10.2017 06:00:00 - 18.10.2017 06:00:00 (BST)Andrewsfield, United Kingdom (3684): precipitation: 12.10.2017 06:00:00 - 18.10.2017 06:00:00 (BST)
Date & Time tt [°C] td [°C] tt -20cm [°C] tt -100cm [°C] ff [km/h] ff [kn] fx [km/h] fx [kn] dd ppp [hPa] vv [km] rr [mm]
18.10.2017 06:00:00 11,2 8,4 - - 9 5 - - NNE 1013,5 25 0,0
18.10.2017 05:00:00 11,1 8,5 - - 13 7 - - ENE 1013,7 25 0,0
18.10.2017 04:00:00 11,1 8,4 - - 15 8 - - ENE 1014,1 25 0,0
18.10.2017 03:00:00 11,0 8,3 - - 9 5 - - NNE 1014,9 24 0,0
18.10.2017 02:00:00 10,8 8,1 - - 5 3 - - N 1015,8 24 0,0
18.10.2017 01:00:00 10,7 7,9 - - 5 3 - - NNE 1015,8 23 0,0
18.10.2017 00:00:00 9,8 7,2 - - 4 2 - - NNE 1016,4 27 0,0
17.10.2017 23:00:00 10,5 7,5 - - 2 1 - - NNW 1016,6 26 0,0
17.10.2017 22:00:00 10,5 7,0 - - 4 2 - - SSW 1017,3 28 0,0
17.10.2017 21:00:00 10,7 6,9 - - 2 1 - - SSW 1017,2 26 0,0
17.10.2017 20:00:00 11,6 7,1 - - 8 4 - - SSW 1017,3 27 0,0
17.10.2017 19:00:00 12,0 7,1 - - 8 4 - - WSW 1017,5 27 0,0
17.10.2017 18:00:00 12,8 7,0 - - 11 6 - - WSW 1017,3 29 0,0
17.10.2017 17:00:00 13,4 6,8 - - 15 8 - - W 1017,8 29 0,0
17.10.2017 16:00:00 13,8 6,6 - - 22 12 - - WSW 1018,1 30 0,0
17.10.2017 15:00:00 13,8 6,7 - - 18 10 - - WSW 1018,3 29 0,0
17.10.2017 14:00:00 13,7 6,3 - - 22 12 - - WSW 1018,8 7 0,0
17.10.2017 13:00:00 14,2 6,9 - - 26 14 - - WSW 1019,7 29 0,0
17.10.2017 12:00:00 14,4 7,7 - - 24 13 - - WSW 1019,5 30 0,0
17.10.2017 11:00:00 13,6 7,7 - - 26 14 - - WSW 1019,9 28 0,0
17.10.2017 10:00:00 12,5 8,1 13,7 13,7 22 12 - - WSW 1019,7 25 0,0
17.10.2017 09:00:00 11,1 7,4 - - 21 11 - - SW 1019,7 25 0,0
17.10.2017 08:00:00 10,2 7,1 - - 21 11 - - SW 1019,3 24 0,0
17.10.2017 07:00:00 10,4 7,1 - - 18 10 - - SW 1018,7 24 0,0
17.10.2017 06:00:00 10,8 6,7 - - 21 11 - - SW 1018,4 26 0,0
17.10.2017 05:00:00 11,6 7,4 - - 28 15 - - SW 1018,2 25 0,0
17.10.2017 04:00:00 11,9 7,7 - - 26 14 - - SW 1018,1 23 0,0
17.10.2017 03:00:00 12,4 7,6 - - 29 16 - - WSW 1018,0 23 0,0
17.10.2017 02:00:00 12,7 7,4 - - 26 14 50 27 SW 1017,9 23 0,0
17.10.2017 01:00:00 12,9 7,4 - - 34 18 54 29 SW 1017,7 23 0,0
17.10.2017 00:00:00 13,6 7,8 - - 39 21 57 31 SW 1017,1 21 0,0
16.10.2017 23:00:00 13,8 7,8 - - 37 20 54 29 SW 1016,8 23 0,0
16.10.2017 22:00:00 13,8 8,3 - - 29 16 55 30 SW 1016,6 22 0,0
16.10.2017 21:00:00 14,1 8,4 - - 37 20 54 29 SW 1016,2 21 0,0
16.10.2017 20:00:00 14,9 8,9 - - 35 19 55 30 SW 1015,6 25 0,0
16.10.2017 19:00:00 15,6 9,8 - - 35 19 59 32 SSW 1015,1 24 0,0
16.10.2017 18:00:00 16,9 9,4 - - 41 22 57 31 SW 1014,7 28 0,0
16.10.2017 17:00:00 18,2 12,5 - - 26 14 50 27 SW 1014,2 22 0,0
16.10.2017 16:00:00 19,5 13,8 - - 37 20 52 28 SW 1014,0 21 0,0
16.10.2017 15:00:00 20,7 14,9 - - 28 15 - - SSW 1013,6 21 0,0
16.10.2017 14:00:00 21,4 14,8 - - 29 16 - - SSW 1013,7 20 0,0
16.10.2017 13:00:00 22,4 15,2 - - 22 12 - - SSW 1014,0 28 0,0
16.10.2017 12:00:00 21,3 16,3 - - 13 7 - - S 1014,7 25 0,0
16.10.2017 11:00:00 19,7 16,3 - - 24 13 - - SE 1014,7 21 0,0
16.10.2017 10:00:00 17,9 16,3 13,9 13,7 18 10 - - SE 1015,5 13 0,0
16.10.2017 09:00:00 15,4 15,1 - - 13 7 - - SE 1016,2 8 0,0
16.10.2017 08:00:00 14,0 14,0 - - 5 3 - - ESE 1016,6 4,1 0,0
16.10.2017 07:00:00 13,7 13,6 - - 5 3 - - E 1016,4 3,9 0,0
16.10.2017 06:00:00 13,6 13,4 - - 9 5 - - SSE 1016,5 3,1 0,0
16.10.2017 05:00:00 14,1 13,9 - - 8 4 - - S 1016,5 3,7 0,0
16.10.2017 04:00:00 13,7 13,7 - - 9 5 - - S 1016,5 3,2 0,0
16.10.2017 03:00:00 13,4 13,4 - - 11 6 - - SSE 1016,4 2,8 0,0
16.10.2017 02:00:00 13,4 13,2 - - 8 4 - - SSE 1016,9 3,6 0,0
16.10.2017 01:00:00 13,2 12,8 - - 8 4 - - SSE 1017,1 4,4 0,0
16.10.2017 00:00:00 13,4 12,4 - - 9 5 - - SSE 1017,2 6 0,0
15.10.2017 23:00:00 13,7 12,1 - - 8 4 - - SSE 1017,4 7 0,0
15.10.2017 22:00:00 13,7 12,1 - - 8 4 - - SSE 1017,5 8 0,0
15.10.2017 21:00:00 14,1 12,3 - - 8 4 - - SSW 1017,4 9 0,0
15.10.2017 20:00:00 14,6 12,5 - - 9 5 - - SSW 1017,2 10 0,0
15.10.2017 19:00:00 15,5 12,8 - - 11 6 - - SSW 1017,1 12 0,0
15.10.2017 18:00:00 16,8 12,5 - - 11 6 - - SSW 1016,6 16 0,0
15.10.2017 17:00:00 18,1 12,8 - - 21 11 - - SW 1016,3 17 0,0
15.10.2017 16:00:00 19,2 13,4 - - 22 12 - - SSW 1016,3 16 0,0
15.10.2017 15:00:00 19,3 13,7 - - 24 13 - - SW 1016,4 14 0,0
15.10.2017 14:00:00 19,1 14,2 - - 24 13 - - SW 1016,6 14 0,0
15.10.2017 13:00:00 17,6 13,7 - - 24 13 - - SSW 1017,2 12 0,0
15.10.2017 12:00:00 16,4 14,1 - - 24 13 - - SW 1017,8 10 0,0
15.10.2017 11:00:00 15,9 14,0 - - 28 15 - - SW 1017,9 12 0,0
15.10.2017 10:00:00 15,5 15,0 13,9 13,7 16 9 - - S 1017,9 12 0,0
15.10.2017 09:00:00 13,1 13,1 - - 8 4 - - S 1018,5 4,8 0,2
15.10.2017 08:00:00 12,4 12,4 - - 5 3 - - S 1018,3 3,9 0,0
15.10.2017 07:00:00 11,3 11,3 - - 9 5 - - SSE 1018,7 2,7 0,0
15.10.2017 06:00:00 10,2 10,2 - - 11 6 - - SE 1019,3 0,1 0,0
15.10.2017 05:00:00 10,3 10,3 - - 9 5 - - SE 1019,8 0,1 0,0
15.10.2017 04:00:00 10,3 10,3 - - 9 5 - - SE 1020,1 0,1 0,0
15.10.2017 03:00:00 11,5 11,5 - - 8 4 - - SSE 1020,7 0,2 0,0
15.10.2017 02:00:00 12,1 12,1 - - 9 5 - - SSE 1021,5 1,2 0,0
15.10.2017 01:00:00 11,7 11,6 - - 9 5 - - SSE 1021,9 0,6 0,0
15.10.2017 00:00:00 12,4 12,3 - - 5 3 - - SSE 1022,3 2,9 0,0
14.10.2017 23:00:00 13,6 13,2 - - - - - - - 1022,8 8 0,0
14.10.2017 22:00:00 14,5 12,6 - - 5 3 - - SSE 1022,7 20 0,0
14.10.2017 21:00:00 15,0 12,5 - - 8 4 - - S 1023,0 28 0,0
14.10.2017 20:00:00 15,5 12,5 - - 8 4 - - S 1023,3 28 0,0
14.10.2017 19:00:00 16,8 13,1 - - 9 5 - - SSW 1023,4 30 0,0
14.10.2017 18:00:00 17,9 13,9 - - 13 7 - - SW 1023,4 29 0,0
14.10.2017 17:00:00 18,7 14,0 - - 13 7 - - SW 1023,6 30 0,0
14.10.2017 16:00:00 19,1 13,8 - - 21 11 - - WSW 1023,3 40 0,0
14.10.2017 15:00:00 19,1 13,9 - - 24 13 - - WSW 1023,6 40 0,0
14.10.2017 14:00:00 18,9 14,1 - - 21 11 - - WSW 1023,5 35 0,0
14.10.2017 13:00:00 19,0 14,6 - - 22 12 - - SW 1023,6 30 0,0
14.10.2017 12:00:00 18,4 14,6 - - 24 13 - - SW 1023,9 30 0,0
14.10.2017 11:00:00 17,8 14,6 - - 22 12 - - SW 1024,0 30 0,0
14.10.2017 10:00:00 16,4 14,4 13,7 13,7 24 13 - - WSW 1024,0 23 0,0
14.10.2017 09:00:00 15,7 14,1 - - 21 11 - - SW 1023,2 23 0,0
14.10.2017 08:00:00 15,0 13,8 - - 18 10 - - SW 1023,4 20 0,0
14.10.2017 07:00:00 14,8 13,6 - - 18 10 - - SW 1022,8 18 0,0
14.10.2017 06:00:00 15,7 14,1 - - 18 10 - - SW 1022,9 26 0,0
14.10.2017 05:00:00 15,8 14,0 - - 21 11 - - SW 1023,0 26 0,0
14.10.2017 04:00:00 15,7 13,9 - - 22 12 - - WSW 1022,9 24 0,0
14.10.2017 03:00:00 15,1 13,7 - - 18 10 - - SW 1022,5 26 0,0
14.10.2017 02:00:00 15,6 13,7 - - 22 12 - - SW 1022,7 29 0,0
14.10.2017 01:00:00 15,9 14,0 - - 29 16 - - WSW 1022,8 26 0,0
14.10.2017 00:00:00 16,0 14,0 - - 24 13 - - WSW 1022,5 24 0,0
13.10.2017 23:00:00 16,1 14,0 - - 28 15 - - SW 1022,3 26 0,0
13.10.2017 22:00:00 16,2 13,9 - - 26 14 - - SW 1022,2 30 0,0
13.10.2017 21:00:00 16,1 13,9 - - 24 13 - - SW 1022,2 30 0,0
13.10.2017 20:00:00 16,2 13,8 - - 22 12 - - SW 1021,9 29 0,0
13.10.2017 19:00:00 16,8 14,0 - - 22 12 - - SW 1021,8 30 0,0
13.10.2017 18:00:00 17,7 14,3 - - 24 13 - - SW 1021,4 30 0,0
13.10.2017 17:00:00 18,2 14,5 - - 29 16 - - SW 1021,1 30 0,0
13.10.2017 16:00:00 18,5 14,6 - - 29 16 52 28 SW 1020,9 35 0,0
13.10.2017 15:00:00 19,0 14,4 - - 34 18 48 26 SW 1020,9 35 0,0
13.10.2017 14:00:00 18,3 14,9 - - 31 17 46 25 WSW 1021,3 35 0,0
13.10.2017 13:00:00 18,1 14,8 - - 31 17 46 25 SW 1021,2 30 0,0
13.10.2017 12:00:00 17,6 15,0 - - 24 13 - - SW 1021,3 28 0,0
13.10.2017 11:00:00 16,9 15,2 - - 21 11 - - SW 1021,3 26 0,0
13.10.2017 10:00:00 15,6 14,9 13,0 13,7 21 11 - - SW 1021,4 16 0,0
13.10.2017 09:00:00 14,6 14,1 - - 21 11 - - SW 1020,9 11 0,0
13.10.2017 08:00:00 13,9 13,1 - - 15 8 - - SSW 1020,8 16 0,0
13.10.2017 07:00:00 13,4 12,6 - - 13 7 - - SSW 1020,7 13 0,0
13.10.2017 06:00:00 12,8 12,1 - - 21 11 - - SSW 1020,7 13 0,0
13.10.2017 05:00:00 12,6 12,2 - - 24 13 - - SW 1021,0 11 0,0
13.10.2017 04:00:00 11,2 11,2 - - 18 10 - - SW 1021,1 12 0,0
13.10.2017 03:00:00 9,8 9,7 - - 11 6 - - SSW 1021,1 8 0,0
13.10.2017 02:00:00 8,7 8,1 - - 4 2 - - SSW 1021,4 9 0,0
13.10.2017 01:00:00 10,5 9,7 - - 16 9 - - SW 1021,1 15 0,0
13.10.2017 00:00:00 10,3 9,0 - - 13 7 - - SW 1021,1 17 0,0
12.10.2017 23:00:00 10,5 8,5 - - 9 5 - - SSW 1021,3 24 0,0
12.10.2017 22:00:00 10,5 8,1 - - 9 5 - - SW 1021,3 26 0,0
12.10.2017 21:00:00 11,4 8,4 - - 11 6 - - SSW 1021,0 27 0,0
12.10.2017 20:00:00 12,1 8,6 - - 13 7 - - SSW 1020,9 30 0,0
12.10.2017 19:00:00 13,1 8,3 - - 9 5 - - S 1020,9 35 0,0
12.10.2017 18:00:00 14,7 8,6 - - 11 6 - - SW 1020,7 35 0,0
12.10.2017 17:00:00 15,8 8,8 - - 16 9 - - WSW 1020,5 40 0,0
12.10.2017 16:00:00 16,0 9,2 - - 22 12 - - WSW 1020,5 40 0,0
12.10.2017 15:00:00 16,1 10,0 - - 21 11 - - W 1020,4 30 0,0
12.10.2017 14:00:00 16,0 9,4 - - 28 15 - - W 1020,5 35 0,0
12.10.2017 13:00:00 15,7 9,2 - - 29 16 - - W 1020,4 40 0,0
12.10.2017 12:00:00 14,8 11,0 - - 21 11 - - WSW 1020,6 30 0,0
12.10.2017 11:00:00 13,0 11,1 - - 22 12 - - WSW 1020,4 23 0,0
12.10.2017 10:00:00 11,1 10,3 13,4 13,7 18 10 - - WSW 1019,9 18 0,0
12.10.2017 09:00:00 9,8 9,4 - - 15 8 - - WSW 1019,5 16 0,0
12.10.2017 08:00:00 8,9 8,6 - - 13 7 - - WSW 1018,9 15 0,0
12.10.2017 07:00:00 8,4 8,1 - - 11 6 - - SW 1017,9 16 0,0
12.10.2017 06:00:00 8,6 8,3 - - 15 8 - - WSW 1016,9 14 0,0

tt = temperature
td = dewpoint
tt -20cm = temperature -20cm
tt -100cm = temperature -100cm
ff = wind speed
fx = gusts
dd = wind direction
ppp = reduced air pressure
vv = visibility
rr = precipitation

Next stations